Location: Dumpton Point
(51.3500°N, 1.4433°E)
Time: 10:07:04
(UTC+00:00)

A-11 Canister half - Pass Details

Date: 13 December 2023
Orbit: 1526 x 1682 km, 47.3° (Epoch: 01 March)

Event Time Altitude Azimuth Distance (km) Brightness Sun altitude
Rises 21:21:30 0° 280° (W) 4,938 12.2 -50.1°
Reaches altitude 10° 21:24:44 10° 277° (W) 3,946 11.5 -50.6°
Enters shadow 21:29:26 31° 265° (W) 2,635 10.3 -51.2°
